Goshen, IN

5:48 PM EDT on October 20, 2017 (GMT -0400)
Goshen Municipal

Weather History for KGSH - April, 2014

Change the Weather History Date:

Wednesday, April 9, 2014

  Actual Average Record
Temperature  
Mean Temperature 45 °F -  
Max Temperature 61 °F 54 °F 75 °F (1953)
Min Temperature 30 °F 35 °F 9 °F (1957)
Degree Days  
Heating Degree Days 20    
Moisture  
Dew Point 32 °F    
Average Humidity 65    
Maximum Humidity 96    
Minimum Humidity 35    
Precipitation  
Precipitation 0.00 in - - ()
Sea Level Pressure  
Sea Level Pressure 29.98 in    
Wind  
Wind Speed 6 mph (WSW)    
Max Wind Speed 14 mph    
Max Gust Speed 20 mph    
Visibility 8 miles    
Events      
Averages and records for this station are not official NWS values.
T = Trace of Precipitation, MM = Missing Value Source: NWS Daily Summary

Daily Weather History Graph

Daily Weather History Graph

Search for Another Location

Airport or City:

Trip Planner

Search our weather history database for the weather conditions in past years. The results will help you decide how hot, cold, wet, or windy it might be!

Date:

Astronomy

Apr. 09, 2014 Rise Set
Actual Time 7:12 AM EDT 8:17 PM EDT
Civil Twilight 6:44 AM EDT 8:45 PM EDT
Nautical Twilight 6:10 AM EDT 9:19 PM EDT
Astronomical Twilight 5:35 AM EDT 9:55 PM EDT
Moon 3:01 PM EDT (4/9) 4:05 AM EDT (4/9)
Length of Visible Light 14h 01m
Length of Day
13h 04m
Waxing Gibbous, 71% of the Moon is Illuminated
Apr 9
Waxing Gibbous
Apr 15
Full
Apr 22
Last Quarter
Apr 29
New
May 6
First Quarter

Hourly Weather History & Observations

Time (EDT) Temp. Windchill Dew Point Humidity Pressure Visibility Wind Dir Wind Speed Gust Speed Precip Events Conditions
12:53 AM 39.0 °F 32.8 °F 33.1 °F 79% 29.90 in 10.0 mi NW 9.2 mph - N/A   Clear
1:53 AM 37.9 °F 33.5 °F 33.1 °F 83% 29.91 in 10.0 mi NNW 5.8 mph - N/A   Clear
2:53 AM 37.0 °F 34.5 °F 32.0 °F 82% 29.91 in 10.0 mi NNW 3.5 mph - N/A   Clear
3:53 AM 36.0 °F 32.1 °F 30.9 °F 82% 29.93 in 9.0 mi NNW 4.6 mph - N/A   Clear
4:53 AM 35.1 °F 32.2 °F 32.0 °F 89% 29.94 in 7.0 mi NNW 3.5 mph - N/A   Scattered Clouds
5:53 AM 34.0 °F 31.0 °F 30.9 °F 89% 29.96 in 5.0 mi NW 3.5 mph - N/A   Clear
6:42 AM 30.9 °F - 28.9 °F 92% 29.96 in 2.5 mi Calm Calm - N/A   Clear
6:53 AM 32.0 °F - 28.9 °F 88% 29.98 in 2.5 mi Calm Calm - N/A   Clear
7:38 AM 30.9 °F - 28.9 °F 92% 29.98 in 1.8 mi Calm Calm - N/A   Clear
7:53 AM 30.0 °F - 28.0 °F 92% 30.00 in 2.0 mi Calm Calm - N/A   Clear
8:04 AM 30.9 °F - 30.0 °F 96% 29.99 in 1.5 mi Calm Calm - N/A   Clear
8:34 AM 35.1 °F - 34.0 °F 96% 30.01 in 2.5 mi Calm Calm - N/A   Clear
8:49 AM 37.4 °F - 33.8 °F 87% 30.01 in 4.0 mi Calm Calm - N/A   Clear
8:53 AM 37.9 °F - 35.1 °F 89% 30.02 in 4.0 mi Calm Calm - N/A   Clear
9:53 AM 45.0 °F 41.8 °F 27.0 °F 49% 30.04 in 10.0 mi ENE 5.8 mph - N/A   Clear
10:53 AM 48.9 °F - 26.1 °F 41% 30.04 in 10.0 mi ESE 4.6 mph - N/A   Clear
11:53 AM 51.1 °F - 27.0 °F 39% 30.04 in 10.0 mi North - - N/A   Clear
12:53 PM 55.0 °F - 28.0 °F 35% 30.04 in 10.0 mi SW 9.2 mph - N/A   Clear
1:53 PM 57.0 °F - 32.0 °F 39% 30.03 in 10.0 mi West 9.2 mph - N/A   Clear
2:53 PM 57.0 °F - 32.0 °F 39% 30.01 in 10.0 mi West 11.5 mph - 0.00 in   Mostly Cloudy
3:53 PM 57.9 °F - 33.1 °F 39% 29.99 in 10.0 mi SSW 11.5 mph 18.4 mph N/A   Mostly Cloudy
4:53 PM 60.1 °F - 33.1 °F 36% 29.97 in 10.0 mi SW 13.8 mph 19.6 mph N/A   Scattered Clouds
5:53 PM 60.1 °F - 34.0 °F 38% 29.96 in 10.0 mi WSW 11.5 mph - N/A   Mostly Cloudy
6:53 PM 59.0 °F - 34.0 °F 39% 29.96 in 10.0 mi SW 9.2 mph - N/A   Mostly Cloudy
7:53 PM 55.9 °F - 34.0 °F 44% 29.95 in 10.0 mi SSW 11.5 mph - N/A   Clear
8:53 PM 52.0 °F - 34.0 °F 50% 29.94 in 10.0 mi South 9.2 mph - N/A   Clear
9:53 PM 51.1 °F - 35.1 °F 54% 29.94 in 10.0 mi SSW 9.2 mph - N/A   Clear
10:53 PM 50.0 °F - 35.1 °F 57% 29.94 in 10.0 mi SSW 10.4 mph - N/A   Clear
11:53 PM 51.1 °F - 36.0 °F 56% 29.94 in 10.0 mi SSW 9.2 mph - N/A   Overcast